GW6292 Weather Reports


time (UTC)temp
C
wind
direction
speed
KPH
gust
KPH
rain 1hr
cm
rain 24hr
cm
rain mn
cm
humidity
%
barometer
mb
20260901014557 -17 0.0 0.0 0.00 0.00 0.00 1018.6
20260901014053 -17 0.0 0.0 0.00 0.00 0.00 1018.7
20260901013549 -17 0.0 0.0 0.00 0.00 0.00 1018.6
20260901013044 -17 0.0 0.0 0.00 0.00 0.00 1018.5
20260901012544 -17 0.0 0.0 0.00 0.00 0.00 1018.6
20260901012044 -17 0.0 0.0 0.00 0.00 0.00 1018.5
20260901011541 -17 0.0 0.0 0.00 0.00 0.00 1018.6
20260901011038 -17 0.0 0.0 0.00 0.00 0.00 1018.4
20260901010534 -17 0.0 0.0 0.00 0.00 0.00 1018.4
20260901010033 -17 0.0 0.0 0.00 0.00 0.00 1018.6
20260901005528 -17 0.0 0.0 0.00 0.00 0.00 1018.4
20260901005024 -17 0.0 0.0 0.00 0.00 0.00 1018.5
20260901004523 -17 0.0 0.0 0.00 0.00 0.00 1018.4
20260901004018 -17 0.0 0.0 0.00 0.00 0.00 1018.2
20260901003513 -17 0.0 0.0 0.00 0.00 0.00 1018.3
20260901003011 -17 0.0 0.0 0.00 0.00 0.00 1018.3
20260901002511 -17 0.0 0.0 0.00 0.00 0.00 1018.4
20260901002006 -17 0.0 0.0 0.00 0.00 0.00 1018.3
20260901001502 24 85 0.0 0.0 0.00 0.00 0.00 90 1018.3
20260901000957 24 85 0.0 0.0 0.00 0.00 0.00 90 1018.1
20260901000458 25 85 0.0 0.0 0.00 0.00 0.00 88 1018.3
20260831235955 25 85 0.0 0.0 0.00 0.00 0.00 88 1018.4
20260831235451 25 85 0.0 0.0 0.00 0.00 0.00 88 1018.4
20260831234947 25 85 0.0 0.0 0.00 0.00 0.00 88 1018.3
20260831234441 25 85 0.0 0.0 0.00 0.00 0.00 87 1018.0
20260831233936 25 85 0.0 0.0 0.00 0.00 0.00 87 1018.2
20260831233431 25 85 0.0 0.0 0.00 0.00 0.00 86 1018.1
20260831232927 25 85 0.0 0.0 0.00 0.00 0.00 85 1018.0
20260831232423 -17 0.0 0.0 0.00 0.00 0.00 1018.3
20260831231918 -17 0.0 0.0 0.00 0.00 0.00 1018.1
20260831231415 26 85 0.0 0.0 0.00 0.00 0.00 84 1018.0
20260831230910 26 85 0.0 0.0 0.00 0.00 0.00 84 1018.3
20260831230405 26 85 0.0 0.0 0.00 0.00 0.00 85 1018.2
20260831225859 26 85 0.0 0.0 0.00 0.00 0.00 85 1018.3
20260831225355 -17 0.0 0.0 0.00 0.00 0.00 1018.4
20260831224849 26 85 0.0 0.0 0.00 0.00 0.00 83 1018.4
20260831224344 26 85 0.0 0.0 0.00 0.00 0.00 83 1018.3
20260831223839 26 85 0.0 0.0 0.00 0.00 0.00 82 1018.6
20260831223335 26 85 0.0 0.0 0.00 0.00 0.00 82 1018.6
20260831222832 26 85 0.0 0.0 0.00 0.00 0.00 82 1018.7
20260831222327 -17 0.0 0.0 0.00 0.00 0.00 1018.8
20260831221827 26 85 0.0 1.6 0.00 0.00 0.00 81 1018.9
20260831221323 26 85 0.0 1.6 0.00 0.00 0.00 81 1018.8
20260831220818 26 85 0.0 0.0 0.00 0.00 0.00 81 1018.8
20260831220313 -17 0.0 0.0 0.00 0.00 0.00 1019.0
20260831215808 -17 0.0 0.0 0.00 0.00 0.00 1018.9
20260831215306 27 85 0.0 0.0 0.00 0.00 0.00 81 1018.7
20260831214800 27 85 0.0 0.0 0.00 0.00 0.00 81 1018.9
20260831214257 27 85 0.0 0.0 0.00 0.00 0.00 79 1019.0
20260831213753 27 85 0.0 0.0 0.00 0.00 0.00 79 1018.8
20260831213249 27 85 0.0 0.0 0.00 0.00 0.00 79 1018.8
20260831212743 27 85 0.0 0.0 0.00 0.00 0.00 78 1019.0
20260831212240 27 85 0.0 0.0 0.00 0.00 0.00 79 1018.7
20260831211738 27 85 0.0 0.0 0.00 0.00 0.00 78 1018.8
20260831211234 27 85 0.0 0.0 0.00 0.00 0.00 77 1018.7
20260831210734 27 85 0.0 0.0 0.00 0.00 0.00 76 1018.6
20260831210231 27 85 0.0 0.0 0.00 0.00 0.00 76 1018.7
20260831205730 28 85 0.0 0.0 0.00 0.00 0.00 76 1018.9
20260831205227 28 85 0.0 0.0 0.00 0.00 0.00 73 1018.8
20260831204726 28 85 0.0 0.0 0.00 0.00 0.00 75 1019.0
20260831204226 29 85 0.0 0.0 0.00 0.00 0.00 70 1018.7
20260831203725 29 85 0.0 0.0 0.00 0.00 0.00 72 1018.9
20260831203224 29 84 0.0 1.6 0.00 0.00 0.00 67 1018.9
20260831202723 28 85 0.0 0.0 0.00 0.00 0.00 69 1018.9
20260831202218 29 85 1.6 1.6 0.00 0.00 0.00 71 1018.8
20260831201713 30 85 0.0 0.0 0.00 0.00 0.00 69 1019.0
20260831201212 30 85 0.0 0.0 0.00 0.00 0.00 64 1018.9
20260831200708 30 84 1.6 1.6 0.00 0.00 0.00 65 1019.1
20260831200208 -17 0.0 0.0 0.00 0.00 0.00 1019.0
20260831195703 -17 0.0 0.0 0.00 0.00 0.00 1019.0
20260831195159 -17 0.0 0.0 0.00 0.00 0.00 1019.1
20260831194653 -17 0.0 0.0 0.00 0.00 0.00 1019.0
20260831194150 -17 0.0 0.0 0.00 0.00 0.00 1019.1
20260831193649 -17 0.0 0.0 0.00 0.00 0.00 1019.0
20260831193145 -17 0.0 0.0 0.00 0.00 0.00 1019.1
20260831192640 -17 0.0 0.0 0.00 0.00 0.00 1019.2
20260831192135 -17 0.0 0.0 0.00 0.00 0.00 1019.4
20260831191631 -17 0.0 0.0 0.00 0.00 0.00 1019.2
20260831191126 -17 0.0 0.0 0.00 0.00 0.00 1019.5
20260831190621 -17 0.0 0.0 0.00 0.00 0.00 1019.5
20260831190120 -17 0.0 0.0 0.00 0.00 0.00 1019.5
20260831185616 29 85 0.0 0.0 0.00 0.00 0.00 68 1019.6
20260831185113 29 85 0.0 0.0 0.00 0.00 0.00 68 1019.6
20260831184612 29 85 0.0 1.6 0.00 0.00 0.00 69 1019.5
20260831184108 29 85 0.0 0.0 0.00 0.00 0.00 67 1019.8
20260831183607 -17 0.0 0.0 0.00 0.00 0.00 1019.7
20260831183106 -17 0.0 0.0 0.00 0.00 0.00 1019.5
20260831182605 28 85 1.6 3.2 0.00 0.00 0.00 67 1019.6
20260831182101 28 85 1.6 3.2 0.00 0.00 0.00 67 1019.8
20260831181601 28 85 0.0 0.0 0.00 0.00 0.00 68 1019.7
20260831181056 28 84 3.2 3.2 0.00 0.00 0.00 68 1019.6
20260831180551 28 84 1.6 1.6 0.00 0.00 0.00 69 1019.7
20260831180046 28 85 3.2 3.2 0.00 0.00 0.00 72 1019.7
20260831175541 -17 0.0 0.0 0.00 0.00 0.00 1019.5
20260831175038 -17 0.0 0.0 0.00 0.00 0.00 1019.5
20260831174538 -17 0.0 0.0 0.00 0.00 0.00 1019.6
20260831174038 28 85 1.6 1.6 0.00 0.00 0.00 72 1019.8
20260831173536 28 85 1.6 1.6 0.00 0.00 0.00 72 1019.9
20260831173033 -17 0.0 0.0 0.00 0.00 0.00 1020.0
20260831172528 -17 0.0 0.0 0.00 0.00 0.00 1019.7
20260831172022 -17 0.0 0.0 0.00 0.00 0.00 1019.8
20260831171518 -17 0.0 0.0 0.00 0.00 0.00 1020.0
20260831171015 -17 0.0 0.0 0.00 0.00 0.00 1020.0
20260831170511 -17 0.0 0.0 0.00 0.00 0.00 1020.0
20260831170009 -17 0.0 0.0 0.00 0.00 0.00 1020.1
20260831165508 -17 0.0 0.0 0.00 0.00 0.00 1020.2
20260831165006 -17 0.0 0.0 0.00 0.00 0.00 1019.8
20260831164501 28 84 0.0 0.0 0.00 0.00 0.00 70 1020.0
20260831163956 28 84 0.0 0.0 0.00 0.00 0.00 70 1020.2
20260831163451 -17 0.0 0.0 0.00 0.00 0.00 1020.4
20260831162950 -17 0.0 0.0 0.00 0.00 0.00 1020.4
20260831162445 27 84 1.6 1.6 0.00 0.00 0.00 69 1020.4
20260831161943 27 84 1.6 1.6 0.00 0.00 0.00 69 1020.4
20260831161435 27 84 3.2 3.2 0.00 0.00 0.00 72 1020.5
20260831160931 27 84 3.2 3.2 0.00 0.00 0.00 74 1020.6
20260831160430 27 84 0.0 1.6 0.00 0.00 0.00 73 1020.7
20260831155925 27 84 1.6 1.6 0.00 0.00 0.00 74 1020.6
20260831155424 27 84 1.6 1.6 0.00 0.00 0.00 76 1020.5
20260831154920 26 85 3.2 3.2 0.00 0.00 0.00 75 1020.6
20260831154416 26 85 3.2 3.2 0.00 0.00 0.00 75 1020.5
20260831153914 26 85 3.2 3.2 0.00 0.00 0.00 75 1020.2
20260831153411 26 85 3.2 3.2 0.00 0.00 0.00 75 1020.4
20260831152907 -17 0.0 0.0 0.00 0.00 0.00 1020.2
20260831152402 27 85 3.2 3.2 0.00 0.00 0.00 73 1020.4
20260831151857 27 85 3.2 3.2 0.00 0.00 0.00 73 1020.5
20260831151356 -17 0.0 0.0 0.00 0.00 0.00 1020.2
20260831150851 -17 0.0 0.0 0.00 0.00 0.00 1020.4
20260831150347 -17 0.0 0.0 0.00 0.00 0.00 1020.2
20260831145846 -17 0.0 0.0 0.00 0.00 0.00 1020.4
20260831145343 -17 0.0 0.0 0.00 0.00 0.00 1020.4
20260831144838 -17 0.0 0.0 0.00 0.00 0.00 1020.2
20260831144334 26 84 0.0 1.6 0.00 0.00 0.00 76 1020.2
20260831143834 26 84 0.0 1.6 0.00 0.00 0.00 76 1020.4
20260831143329 26 84 3.2 3.2 0.00 0.00 0.00 75 1020.4
20260831142825 26 84 3.2 3.2 0.00 0.00 0.00 75 1020.5
20260831142320 26 84 1.6 1.6 0.00 0.00 0.00 79 1020.5
20260831141820 -17 0.0 0.0 0.00 0.00 0.00 1020.2
20260831141315 -17 0.0 0.0 0.00 0.00 0.00 1020.4
20260831140810 -17 0.0 0.0 0.00 0.00 0.00 1020.1
20260831140310 25 85 4.8 4.8 0.00 0.00 0.00 83 1020.2
20260831135808 25 85 4.8 4.8 0.00 0.00 0.00 83 1020.4
20260831135306 25 85 3.2 3.2 0.00 0.00 0.00 84 1020.1
20260831134759 -17 0.0 0.0 0.00 0.00 0.00 1020.2
20260831134255 -17 0.0 0.0 0.00 0.00 0.00 1020.0
20260831133754 -17 0.0 0.0 0.00 0.00 0.00 1020.2
20260831133254 -17 0.0 0.0 0.00 0.00 0.00 1020.2
20260831132749 24 85 0.0 1.6 0.00 0.00 0.00 88 1020.4
20260831132244 24 85 0.0 1.6 0.00 0.00 0.00 88 1020.4
20260831131744 24 85 1.6 1.6 0.00 0.00 0.00 88 1020.4
20260831131241 24 85 0.0 0.0 0.00 0.00 0.00 88 1020.5
20260831130735 -17 0.0 0.0 0.00 0.00 0.00 1020.4
20260831130231 23 85 1.6 1.6 0.00 0.00 0.00 90 1020.5
20260831125729 23 85 1.6 1.6 0.00 0.00 0.00 90 1020.2
20260831125226 -17 0.0 0.0 0.00 0.00 0.00 1020.4
20260831124726 -17 0.0 0.0 0.00 0.00 0.00 1020.4
20260831124222 -17 0.0 0.0 0.00 0.00 0.00 1020.1
20260831123722 -17 0.0 0.0 0.00 0.00 0.00 1020.1
20260831123222 -17 0.0 0.0 0.00 0.00 0.00 1020.1
20260831122721 -17 0.0 0.0 0.00 0.00 0.00 1020.1
20260831122217 -17 0.0 0.0 0.00 0.00 0.00 1020.2
20260831121716 -17 0.0 0.0 0.00 0.00 0.00 1020.0
20260831121213 -17 0.0 0.0 0.00 0.00 0.00 1020.0
20260831120708 -17 0.0 0.0 0.00 0.00 0.00 1020.1
20260831120203 -17 0.0 0.0 0.00 0.00 0.00 1020.0
20260831115658 -17 0.0 0.0 0.00 0.00 0.00 1020.1
20260831115154 -17 0.0 0.0 0.00 0.00 0.00 1019.9
20260831114653 -17 0.0 0.0 0.00 0.00 0.00 1019.9
20260831114148 -17 0.0 0.0 0.00 0.00 0.00 1019.8
20260831113648 -17 0.0 0.0 0.00 0.00 0.00 1019.9
20260831113143 -17 0.0 0.0 0.00 0.00 0.00 1019.8
20260831112642 -17 0.0 0.0 0.00 0.00 0.00 1019.8
20260831112137 -17 0.0 0.0 0.00 0.00 0.00 1019.9
20260831111633 -17 0.0 0.0 0.00 0.00 0.00 1019.8
20260831111129 -17 0.0 0.0 0.00 0.00 0.00 1019.7
20260831110624 -17 0.0 0.0 0.00 0.00 0.00 1019.6
20260831110120 -17 0.0 0.0 0.00 0.00 0.00 1019.5
20260831105619 -17 0.0 0.0 0.00 0.00 0.00 1019.5
20260831105114 -17 0.0 0.0 0.00 0.00 0.00 1019.4
20260831104610 -17 0.0 0.0 0.00 0.00 0.00 1019.3
20260831104106 -17 0.0 0.0 0.00 0.00 0.00 1019.2
20260831103601 -17 0.0 0.0 0.00 0.00 0.00 1018.9
20260831103057 -17 0.0 0.0 0.00 0.00 0.00 1019.1
20260831102556 -17 0.0 0.0 0.00 0.00 0.00 1019.0
20260831102052 -17 0.0 0.0 0.00 0.00 0.00 1019.0
20260831101552 -17 0.0 0.0 0.00 0.00 0.00 1018.9
20260831101048 -17 0.0 0.0 0.00 0.00 0.00 1018.9
20260831100548 -17 0.0 0.0 0.00 0.00 0.00 1018.8
20260831100045 -17 0.0 0.0 0.00 0.00 0.00 1018.7
20260831095543 -17 0.0 0.0 0.00 0.00 0.00 1018.7
20260831095038 -17 0.0 0.0 0.00 0.00 0.00 1018.9
20260831094534 -17 0.0 0.0 0.00 0.00 0.00 1018.7
20260831094030 -17 0.0 0.0 0.00 0.00 0.00 1018.7
20260831093525 -17 0.0 0.0 0.00 0.00 0.00 1018.7
20260831093021 -17 0.0 0.0 0.00 0.00 0.00 1018.7
20260831092517 -17 0.0 0.0 0.00 0.00 0.00 1018.8
20260831092012 -17 0.0 0.0 0.00 0.00 0.00 1018.6
20260831091507 -17 0.0 0.0 0.00 0.00 0.00 1018.7
20260831091002 -17 0.0 0.0 0.00 0.00 0.00 1018.5
20260831090458 -17 0.0 0.0 0.00 0.00 0.00 1018.6
20260831085954 -17 0.0 0.0 0.00 0.00 0.00 1018.7
20260831085449 -17 0.0 0.0 0.00 0.00 0.00 1018.6
20260831084949 -17 0.0 0.0 0.00 0.00 0.00 1018.7
20260831084445 -17 0.0 0.0 0.00 0.00 0.00 1018.8
20260831083942 -17 0.0 0.0 0.00 0.00 0.00 1018.8
20260831083436 -17 0.0 0.0 0.00 0.00 0.00 1018.7
20260831082935 -17 0.0 0.0 0.00 0.00 0.00 1018.8
20260831082435 -17 0.0 0.0 0.00 0.00 0.00 1018.7
20260831081930 -17 0.0 0.0 0.00 0.00 0.00 1018.5
20260831081426 -17 0.0 0.0 0.00 0.00 0.00 1018.7
20260831080922 -17 0.0 0.0 0.00 0.00 0.00 1018.8
20260831080417 20 85 0.0 0.0 0.00 0.00 0.00 96 1018.8
20260831075913 20 85 0.0 0.0 0.00 0.00 0.00 96 1018.7
20260831075408 -17 0.0 0.0 0.00 0.00 0.00 1018.6
20260831074903 -17 0.0 0.0 0.00 0.00 0.00 1018.7
20260831074402 20 85 0.0 0.0 0.00 0.00 0.00 97 1018.6
20260831073857 20 85 0.0 0.0 0.00 0.00 0.00 97 1018.9
20260831073356 -17 0.0 0.0 0.00 0.00 0.00 1018.8
20260831072851 -17 0.0 0.0 0.00 0.00 0.00 1018.8
20260831072347 -17 0.0 0.0 0.00 0.00 0.00 1018.8
20260831071843 20 85 0.0 0.0 0.00 0.00 0.00 96 1018.6
20260831071342 20 85 0.0 0.0 0.00 0.00 0.00 96 1018.8
20260831070837 -17 0.0 0.0 0.00 0.00 0.00 1018.8
20260831070336 -17 0.0 0.0 0.00 0.00 0.00 1018.5
20260831065836 -17 0.0 0.0 0.00 0.00 0.00 1018.6
20260831065333 20 85 0.0 0.0 0.00 0.00 0.00 96 1018.5
20260831064829 20 85 0.0 0.0 0.00 0.00 0.00 96 1018.6
20260831064324 -17 0.0 0.0 0.00 0.00 0.00 1018.6
20260831063820 -17 0.0 0.0 0.00 0.00 0.00 1018.6
20260831063315 -17 0.0 0.0 0.00 0.00 0.00 1018.6
20260831062815 -17 0.0 0.0 0.00 0.00 0.00 1018.7
20260831062310 -17 0.0 0.0 0.00 0.00 0.00 1018.9
20260831061809 20 85 0.0 0.0 0.00 0.00 0.00 96 1018.9
20260831061308 20 85 0.0 0.0 0.00 0.00 0.00 96 1018.8
20260831060805 -17 0.0 0.0 0.00 0.00 0.00 1018.9
20260831060304 -17 0.0 0.0 0.00 0.00 0.00 1018.9
20260831055804 -17 0.0 0.0 0.00 0.00 0.00 1019.1
20260831055259 -17 0.0 0.0 0.00 0.00 0.00 1019.0
20260831054754 -17 0.0 0.0 0.00 0.00 0.00 1019.3
20260831054249 -17 0.0 0.0 0.00 0.00 0.00 1019.3
20260831053748 21 85 0.0 0.0 0.00 0.00 0.00 95 1019.1
20260831053246 21 85 0.0 0.0 0.00 0.00 0.00 95 1019.3
20260831052741 21 85 0.0 0.0 0.00 0.00 0.00 95 1019.1
20260831052240 21 85 0.0 0.0 0.00 0.00 0.00 95 1019.1
20260831051738 -17 0.0 0.0 0.00 0.00 0.00 1019.1
20260831051237 21 85 0.0 0.0 0.00 0.00 0.00 95 1019.2
20260831050732 21 85 0.0 0.0 0.00 0.00 0.00 95 1018.9
20260831050231 -17 0.0 0.0 0.00 0.00 0.00 1019.2
20260831045726 -17 0.0 0.0 0.00 0.00 0.00 1019.1
20260831045226 -17 0.0 0.0 0.00 0.00 0.00 1019.2
20260831044721 21 85 0.0 0.0 0.00 0.00 0.00 95 1019.0
20260831044216 21 85 0.0 0.0 0.00 0.00 0.00 95 1019.0
20260831043713 -17 0.0 0.0 0.00 0.00 0.00 1019.3
20260831043207 21 85 0.0 0.0 0.00 0.00 0.00 94 1019.1
20260831042706 21 85 0.0 0.0 0.00 0.00 0.00 94 1019.1
20260831042202 21 85 0.0 0.0 0.00 0.00 0.00 94 1019.2
20260831041656 21 85 0.0 0.0 0.00 0.00 0.00 94 1019.1
20260831041155 21 85 0.0 0.0 0.00 0.00 0.00 94 1019.2
20260831040651 21 85 0.0 0.0 0.00 0.00 0.00 94 1019.3
20260831040149 21 85 0.0 0.0 0.00 0.00 0.00 94 1019.5
20260831035649 21 85 0.0 0.0 0.00 0.00 0.00 94 1019.4
20260831035150 21 85 0.0 0.0 0.00 0.00 0.00 94 1019.3
20260831034648 21 85 0.0 0.0 0.00 0.00 0.00 94 1019.3
20260831034144 21 85 0.0 0.0 0.00 0.00 0.00 94 1019.3
20260831033640 21 85 0.0 0.0 0.00 0.00 0.00 93 1019.3
20260831033134 21 85 0.0 0.0 0.00 0.00 0.00 93 1019.3
20260831032628 21 85 0.0 0.0 0.00 0.00 0.00 93 1019.3
20260831032124 21 85 0.0 0.0 0.00 0.00 0.00 93 1019.2
20260831031624 21 85 0.0 0.0 0.00 0.00 0.00 93 1019.2
20260831031123 21 85 0.0 0.0 0.00 0.00 0.00 93 1019.3
20260831030622 21 85 0.0 0.0 0.00 0.00 0.00 93 1019.4
20260831030121 21 85 0.0 0.0 0.00 0.00 0.00 93 1019.3
20260831025620 21 85 0.0 0.0 0.00 0.00 0.00 93 1019.4
20260831025115 21 85 0.0 0.0 0.00 0.00 0.00 93 1019.4
20260831024612 21 85 0.0 0.0 0.00 0.00 0.00 93 1019.4
20260831024110 21 85 0.0 0.0 0.00 0.00 0.00 93 1019.7
20260831023608 21 85 0.0 0.0 0.00 0.00 0.00 93 1019.5
20260831023103 21 85 0.0 0.0 0.00 0.00 0.00 93 1019.7
20260831022602 21 85 0.0 0.0 0.00 0.00 0.00 93 1019.8
20260831022058 21 85 0.0 0.0 0.00 0.00 0.00 93 1019.9
20260831021556 21 85 0.0 0.0 0.00 0.00 0.00 93 1019.9
20260831021053 22 85 0.0 0.0 0.00 0.00 0.00 92 1020.1
20260831020548 22 85 0.0 0.0 0.00 0.00 0.00 92 1019.9
20260831020042 22 85 0.0 0.0 0.00 0.00 0.00 92 1019.8
20260831015538 22 85 0.0 0.0 0.00 0.00 0.00 91 1020.0
20260831015033 22 85 0.0 0.0 0.00 0.00 0.00 91 1019.8